Weather History for Kotzebue, AK

Change the Weather History Date:

Friday, January 18, 2013

  Actual Average Record
Temperature  
Mean Temperature -12 °F -4 °F  
Max Temperature -5 °F - 37 °F (1963)
Min Temperature -18 °F -10 °F -55 °F (1934)
Degree Days  
Heating Degree Days 77 68  
Month to date heating degree days 916 1213  
Since 1 July heating degree days 7417 7515  
Cooling Degree Days 0    
Month to date cooling degree days 0  
Year to date cooling degree days 0  
Moisture  
Dew Point -17 °F    
Average Humidity 69    
Maximum Humidity 82    
Minimum Humidity 50    
Precipitation  
Precipitation 0.00 in 0.01 in 0.24 in (2000)
Month to date precipitation 0.90 0.37  
Year to date precipitation 0.90 0.37  
Snow  
Snow 0.00 in 0.30 in 3.00 in (1937)
Month to date snowfall 8.2 5.5  
Since 1 July snowfall 12.3 34.4  
Snow Depth 9.00 in    
Sea Level Pressure  
Sea Level Pressure 30.59 in    
Wind  
Wind Speed 4 mph (NE)    
Max Wind Speed 9 mph    
Max Gust Speed 12 mph    
Visibility 10 miles    
Events      
T = Trace of Precipitation, MM = Missing Value Source: NWS Daily Summary

Daily Weather History Graph

Daily Weather History Graph

Search for Another Location

Airport:

Trip Planner

Search our weather history database for the weather conditions in past years. The results will help you decide how hot, cold, wet, or windy it might be!

Date:

Astronomy

Jan. 18, 2013 Rise Set
Actual Time 11:45 AM AKST 4:17 PM AKST
Civil Twilight 10:24 AM AKST 5:38 PM AKST
Nautical Twilight 9:12 AM AKST 6:50 PM AKST
Astronomical Twilight 8:08 AM AKST 7:54 PM AKST
Moon 11:28 AM AKST (1/18) 3:12 AM AKST (1/18)
Length of Visible Light 7h 13m
Length of Day
4h 31m
Waxing Crescent, 49% of the Moon is Illuminated
Jan 18
Waxing Crescent
Jan 18
First Quarter
Jan 26
Full
Feb 3
Last Quarter
Feb 9
New

Hourly Weather History & Observations

Time (AKST) Temp. Windchill Dew Point Humidity Pressure Visibility Wind Dir Wind Speed Gust Speed Precip Events Conditions
12:53 AM -14.1 °F -31.3 °F -20.0 °F 75% 30.51 in 10.0 mi SSW 8.1 mph - N/A   Clear
1:53 AM -14.1 °F - -20.0 °F 75% 30.53 in 10.0 mi Calm Calm - N/A   Clear
3:53 AM -14.1 °F - -20.9 °F 71% 30.54 in 10.0 mi Calm Calm - N/A   Clear
4:53 AM -14.1 °F - -18.9 °F 79% 30.56 in 10.0 mi Calm Calm - N/A   Clear
5:53 AM -16.1 °F -28.6 °F -20.0 °F 82% 30.57 in 10.0 mi ESE 4.6 mph - N/A   Clear
6:53 AM -11.9 °F - -18.0 °F 74% 30.57 in 10.0 mi Calm Calm - N/A   Clear
7:53 AM -9.0 °F - -16.1 °F 71% 30.59 in 10.0 mi Calm Calm - N/A   Clear
8:53 AM -7.1 °F -15.9 °F -14.1 °F 72% 30.60 in 10.0 mi Variable 3.5 mph - N/A   Clear
9:53 AM -14.1 °F -26.3 °F -20.0 °F 75% 30.60 in 10.0 mi NNE 4.6 mph - N/A   Clear
10:53 AM -8.0 °F -19.2 °F -15.0 °F 71% 30.60 in 10.0 mi Variable 4.6 mph - N/A   Clear
11:53 AM -8.0 °F -21.0 °F -15.0 °F 71% 30.61 in 10.0 mi NE 5.8 mph - N/A   Clear
12:53 PM -8.0 °F -21.0 °F -16.1 °F 68% 30.62 in 10.0 mi Variable 5.8 mph - N/A   Clear
1:53 PM -9.9 °F -19.2 °F -16.1 °F 74% 30.63 in 10.0 mi Variable 3.5 mph - N/A   Clear
2:53 PM -5.1 °F -13.6 °F -14.1 °F 65% 30.62 in 10.0 mi NNE 3.5 mph - N/A   Clear
3:53 PM -7.1 °F -21.4 °F -15.0 °F 68% 30.61 in 10.0 mi NNE 6.9 mph - N/A   Clear
4:53 PM -8.0 °F -22.5 °F -16.1 °F 68% 30.61 in 10.0 mi Variable 6.9 mph - N/A   Clear
5:53 PM -8.0 °F -19.2 °F -16.1 °F 68% 30.60 in 10.0 mi Variable 4.6 mph - N/A   Clear
6:53 PM -9.0 °F -23.8 °F -17.0 °F 68% 30.60 in 10.0 mi NNE 6.9 mph - N/A   Clear
7:53 PM -9.0 °F -22.3 °F -17.0 °F 68% 30.59 in 10.0 mi Variable 5.8 mph - N/A   Clear
8:53 PM -11.9 °F -21.5 °F -18.9 °F 71% 30.58 in 10.0 mi Variable 3.5 mph - N/A   Clear
9:53 PM -7.1 °F -21.4 °F -16.1 °F 65% 30.58 in 10.0 mi NNE 6.9 mph - N/A   Clear
10:53 PM -11.9 °F -27.3 °F -18.9 °F 71% 30.58 in 10.0 mi Variable 6.9 mph - N/A   Clear
11:53 PM -11.9 °F -27.3 °F -18.9 °F 71% 30.58 in 10.0 mi ENE 6.9 mph - N/A   Clear